Regional Weather Roundup
Issued by NWS Albany, NY

Home | Current Version | Previous Version | Text Only | Print | Product List | Glossary On
Versions: 1 2 3 4 5 6 7 8 9 10 11 12 13 14 15 16 17 18 19 20 21 22 23 24 25 26 27
000
ASUS41 KALY 222010
RWRALY

NEW YORK STATE HOURLY WEATHER ROUNDUP
NATIONAL WEATHER SERVICE ALBANY NY
400 PM EDT TUE APR 22 2014

NOTE: "FAIR" INDICATES FEW OR NO CLOUDS BELOW 12,000 FEET WITH NO
SIGNIFICANT WEATHER AND/OR NO OBSTRUCTIONS TO VISIBILITY.

NYZ032-033-038>043-046>054-057>066-NYZ062>081-222100-
EAST


CITY           SKY/WX    TMP DP  RH WIND       PRES   REMARKS
ALBANY         LGT RAIN  63  44  50 S6        29.51F
GLENS FALLS    CLOUDY    67  50  54 SW12      29.48F
POUGHKEEPSIE   LGT RAIN  69  45  41 W14       29.53S
NEWBURGH       CLOUDY    66  48  52 W17G23    29.56S
MONTGOMERY     LGT RAIN  65  50  58 SW8       29.54F
WHITE PLAINS   PTSUNNY   65  44  46 S9        29.55F
ISLIP          PTSUNNY   60  49  66 S10G20    29.57F
NEW YORK CITY  MOSUNNY   64  45  49 S13       29.55F
CENTRAL PARK   PTSUNNY   69  45  41 S6        29.57F
$$

NYZ005>009-017-018-044>046-055-056-222100-
CENTRAL


CITY           SKY/WX    TMP DP  RH WIND       PRES   REMARKS
FULTON         CLOUDY    55  50  83 W15       29.54S
SYRACUSE       CLOUDY    57  52  83 NW13G24   29.53R
ROME           LGT RAIN  57  54  89 W12       29.52S
ELMIRA         PTSUNNY   63  56  78 CALM      29.52F
BINGHAMTON     CLOUDY    55  52  89 SW10      29.53F
MONTICELLO     CLOUDY    54  52  94 CALM      29.58F
$$

NYZ026>034-041>043-222100-
NORTH


CITY           SKY/WX    TMP DP  RH WIND       PRES   REMARKS
WATERTOWN      CLOUDY    49  45  86 SW8       29.51R FOG
FORT DRUM      NOT AVBL
MASSENA        CLOUDY    52  52 100 SW6       29.45S FOG
SARANAC LAKE   LGT RAIN  53  51  93 SW8       29.43F FOG
PLATTSBURGH    LGT RAIN  53  45  74 E3        29.44F
$$

NYZ001>004-010>016-019>021-222100-
WEST


CITY           SKY/WX    TMP DP  RH WIND       PRES   REMARKS
NIAGARA FALLS  PTSUNNY   53  42  66 W22G28    29.60S
BUFFALO        CLOUDY    40  38  93 SW17      29.61S FOG     WCI  31
DUNKIRK        CLOUDY    43  39  86 W13G23    29.68R
JAMESTOWN      CLOUDY    43  39  87 W14G23    29.66R
WELLSVILLE     PTSUNNY   59  46  62 NW14G24   29.58F
ROCHESTER      CLOUDY    54  51  90 NW10G17   29.56R FOG
PENN YAN       PTSUNNY   63  47  55 W12G21    29.53F
$$

             KEY
       WCI = WIND CHILL INDEX
       VSB = VISIBILITY
       HX  = HEAT INDEX
$$



USA.gov is the U.S. government's official web portal to all federal, state and local government web resources and services.